Lapse_Rate
6.7 6.8 6.7 6.3 6.4 6.3 6.2 6.1 6.2 6.2 5.9 5.9 5.7 5.7 5.8 5.5 5.3 5.2 5.2 5.2 5.3 5.4
6.5 6.4 6.3 6.4 6.3 6.1 6.1 5.9 5.9 5.9 5.9 6.0 5.8 5.3 5.1 5.2 5.3 5.2 5.1 5.1 5.2 5.3
6.3 6.3 6.3 6.2 6.0 6.0 6.0 5.9 5.9 5.8 5.7 5.6 5.5 5.4 5.2 5.0 5.1 5.1 5.1 5.3 5.4 5.4
6.1 6.2 6.1 6.1 6.1 6.1 6.0 6.0 5.8 5.8 5.8 5.7 5.6 5.5 5.4 5.4 5.3 5.3 5.1 5.1 5.3 5.6
5.9 6.0 6.1 6.2 6.2 6.1 6.1 6.1 6.0 5.9 5.9 5.8 5.8 5.8 5.9 5.8 5.7 5.6 5.6 5.7 5.7 5.9
6.0 6.1 6.1 6.3 6.3 6.2 6.2 6.2 6.2 6.2 6.2 6.1 6.0 6.0 5.9 5.9 5.9 5.9 5.8 5.8 5.8 5.9
6.2 6.3 6.4 6.4 6.4 6.4 6.4 6.3 6.3 6.3 6.3 6.3 6.3 6.2 6.2 6.1 6.0 5.9 5.9 5.9 5.9 6.0
6.4 6.6 6.6 6.6 6.6 6.4 6.4 6.3 6.4 6.5 6.5 6.6 6.5 6.4 6.4 6.3 6.2 6.1 6.0 6.2 6.2 6.2
6.4 6.5 6.7 6.7 6.8 6.7 6.7 6.7 6.6 6.6 6.6 6.6 6.4 6.4 6.3 6.3 6.1 6.0 6.1 6.0 6.2 6.2
6.3 6.4 6.5 6.7 6.8 6.8 6.6 6.7 6.7 6.6 6.5 6.5 6.5 6.4 6.2 6.0 6.1 6.1 6.1 6.1 6.1 6.3
6.1 6.2 6.2 6.4 6.4 6.3 6.3 6.2 6.3 6.3 6.4 6.3 6.2 6.1 6.1 5.9 5.9 5.9 6.0 6.0 6.2 6.4
6.2 6.4 6.5 6.5 6.4 6.3 6.3 6.2 6.0 6.0 5.9 6.0 6.1 6.0 5.9 5.9 5.9 6.0 6.1 6.1 6.2 6.3
6.1 6.2 6.3 6.4 6.4 6.2 6.1 6.2 6.1 6.0 6.0 6.0 6.1 6.2 6.3 5.9 5.9 6.1 6.0 6.1 6.2 6.3
6.1 6.2 6.2 6.2 6.2 6.1 6.2 6.2 6.1 6.0 6.2 6.2 6.1 6.0 6.0 6.0 6.1 6.1 6.1 6.1 6.3 6.2
Wind_Speed
6 5 6 6 5 5 6 6 8 9 9 11 10 7 6 5 5 6 5 7 5 4
2 3 3 3 4 4 5 6 10 11 10 9 9 9 9 6 6 6 5 5 5 4
2 3 3 3 4 4 5 7 9 10 10 9 9 9 8 7 6 6 4 4 5 5
1 1 3 4 4 5 6 8 10 10 10 10 9 9 9 8 8 7 7 6 6 6
3 2 2 3 3 5 6 7 9 10 10 10 10 10 10 9 8 9 7 6 6 6
3 3 2 1 2 3 6 7 8 9 10 10 9 9 8 8 8 7 6 7 6 6
3 3 2 1 2 4 5 7 8 8 9 9 9 9 9 8 8 8 7 6 5 5
4 3 4 4 4 4 4 5 6 7 7 7 7 6 9 8 7 7 6 5 5 4
7 4 5 5 6 6 6 6 7 7 7 8 6 9 9 8 7 7 6 6 5 5
8 7 6 6 7 8 8 7 7 6 7 7 6 9 9 8 5 5 4 4 4 5
6 8 8 8 8 8 7 8 7 8 8 7 6 11 11 10 5 3 2 4 7 7
6 8 9 11 11 10 9 9 8 7 8 7 7 11 11 10 7 6 6 7 9 8
9 8 9 11 10 9 10 9 7 7 8 10 8 13 13 12 6 8 6 7 7 9
9 8 8 8 8 7 6 6 6 6 8 10 11 10 16 15 7 7 6 7 6 6
Wind_Direction
206 217 212 216 214 221 214 211 188 195 196 201 184 164 152 169 167 164 176 169 171 193
173 212 232 211 213 214 204 190 189 190 187 185 171 165 160 160 158 167 164 179 183 194
194 218 222 210 216 212 187 177 171 173 166 162 157 147 150 151 158 163 160 162 186 199
351 230 214 212 204 192 171 169 170 165 162 157 156 160 160 162 167 171 173 180 195 209
328 308 251 220 186 179 170 169 168 162 161 162 164 166 168 166 175 174 177 176 195 206
319 288 274 222 159 163 163 165 161 162 163 165 166 168 170 170 167 171 181 179 196 193
294 283 283 208 174 165 165 164 163 165 168 169 165 170 170 170 171 173 177 168 182 192
305 246 209 201 192 176 185 182 176 169 168 169 174 178 172 172 173 174 177 178 184 209
304 267 228 207 193 187 191 186 185 185 179 178 189 170 180 182 181 188 191 196 182 198
298 271 242 219 208 202 198 187 194 194 190 197 194 180 183 195 190 191 204 199 195 197
289 258 243 233 226 217 203 202 199 200 199 197 192 189 190 185 179 156 217 240 221 210
304 261 233 222 219 214 207 203 202 199 198 201 200 191 195 200 192 189 219 224 221 212
312 288 256 237 219 207 210 209 197 195 201 204 200 193 199 211 207 207 213 229 225 211
314 302 281 258 235 216 195 187 194 198 204 206 205 199 205 209 212 216 214 227 220 213